THOR ABLESTAR R/B, 118

Orbit data source: Space-Track

THOR ABLESTAR R/B, 118 is space debris in LEO originally from a launch on Thu, 29 Jun 1961 UTC launched from the Air Force Eastern Test Range (AFETR). Debris objects in space refer to the collection of defunct objects orbiting the Earth. Examples of debris include non-operational satellites, rocket bodies, and fragments generated from explosions, collisions, or faulty payload assembly.

Loading next visibility...
Identifier
118, 1961-015C
Orbit
LEO
Country
Flag of USUS
Related business
Manufacturer
Aerojet
Mission
Spacecraft
Bus & Motor
ABLESTAR, Unknown motor
Mass
~600 kg wet, 600 kg dry
Launch date (UTC)
1961-06-29 (65 years ago)
Launch vehicle
Unknown
Launch site
Air Force Eastern Test Range (AFETR)
Object type
Payload
Rocket body
Debris
Shape & HBR
Unknown
Radar Cross Section
Large (>1 m²)

Expand to show TLE details & history
Last TLE update: 5 hours ago

TLE from 5 hours ago
0 THOR ABLESTAR R/B
1 00118U 61015C   26127.28710604  .00000077  00000-0  97705-4 0  9995
2 00118  66.7622 162.5808 0088537 298.3563  60.8614 14.02721988310403
Epoch: 2026-05-07T06:53Z
TLE epoch observation values (Epoch: 2026-05-07T06:53:25.961Z)
Latitude
-0.00005°
Longitude
-165.9128°
Altitude
855.594 km
Speed
7.441 km/s
True Right ascension
10h 50m 19s
True Declination
0° 00' 00"
Sunlit
Object was in daylight at epoch
Visualization orbit readout
Latitude
Unknown
Longitude
Unknown
Altitude
Unknown
Speed
Unknown
Apparent Right ascension
Unknown
Apparent Declination
Unknown
Sunlit
N/A
Visualization observer readout
Local Sidereal Time
19:59:13
Azimuth
Unknown
Elevation
Unknown
Doppler factor
Unknown
Orbital elements
Apogee altitude
947.059 km
Perigee altitude
818.487 km
Semi-major axis
7,260.91 km
Eccentricity
0.00885
Inclination
66.7622°
RAAN
162.5808°
Arg. of periapsis
298.3563°
True anomaly
61.75233°
Mean anomaly
60.8614°
Eccentric anomaly
61.30639°
Mean motion
3.50798 °/min
Orbital period
102.62 mins
BSTAR
0.000097705
Loading maneuver chart data...
Computing Atmospheric mass density...

Documentation

Showing up to 5 results
|